Simultaneous Nadir Overpasses (SNOs) Predictions

Prediction of SNOs between AQUA and NOAA-19 Satellite Orbit:

Table of predicted SNOs for the next 14.0 days since TLE Epoch: 12/28/2018
Index Date (AQUA) Time (AQUA) Lat,Lon (AQUA) SZA (AQUA ) Date (NOAA-19) Time (NOAA-19) Lat,Lon (NOAA-19) SZA (NOAA-19 ) Distance(km) Time Diff (sec)
1 12/30/2018 15:33:24 -80.59, 90.43 74.54 12/30/2018 15:32:24 -80.59, 90.26 74.50 2.99 60
2 12/30/2018 16:22:52 80.61,-102.15 105.50 12/30/2018 16:23:27 80.61,-102.16 105.48 0.88 35
3 01/01/2019 21:07:09 80.59,-172.92 105.31 01/01/2019 21:05:57 80.59,-173.05 105.35 2.29 72
4 01/01/2019 21:56:35 -80.59, -5.36 74.69 01/01/2019 21:56:53 -80.61, -5.26 74.69 2.76 18
5 01/04/2019 03:30:20 80.59, 91.26 105.13 01/04/2019 03:30:26 80.60, 91.23 105.14 1.89 6
6 01/06/2019 09:04:04 -80.60,-172.29 75.08 01/06/2019 09:03:54 -80.60,-172.26 75.08 0.69 10
7 01/08/2019 14:37:49 80.60, -75.74 104.67 01/08/2019 14:37:26 80.58, -75.86 104.67 2.86 23
8 01/08/2019 15:27:15 -80.60, 91.87 75.34 01/08/2019 15:28:24 -80.60, 91.81 75.36 1.11 69
9 01/10/2019 20:11:31 -80.58, 21.03 75.67 01/10/2019 20:10:53 -80.59, 21.02 75.64 0.95 38




NCC Satellite Simultaneous Nadir Overpasses (SNOs) Prediction Service
